{"data":{"norad_id":43271,"intl_designator":"2018-033A","name":"SUPERBIRD-B3","alt_names":[],"object_type":"PAYLOAD","status":"ACTIVE","operator":null,"country":"JPN","launch_date":"2018-04-05","launch_site_code":"FRGUI","launch_vehicle":null,"mission":null,"orbit_class":"UNKNOWN","rcs_meters":null,"size_class":null,"mass_kg":null,"dimensions":null,"purposes":["comms"],"wikipedia_slug":null,"has_3d_model":false,"image_url":null,"decayed_at":null,"tle_current":{"epoch":"2026-05-25T04:54:38.767104Z","epoch_age_seconds":53806,"freshness":"FRESH","line1":"1 43271U 18033A   26145.20461536 -.00000094  00000+0  00000+0 0  9999","line2":"2 43271   0.0151 289.6233 0001047 147.3248  41.5076  1.00271115 29833","mean_motion":1.00271115,"eccentricity":0.0001047,"inclination_deg":0.0151,"raan_deg":289.6233,"arg_perigee_deg":147.3248,"mean_anomaly_deg":41.5076,"bstar":0,"rev_number":2983,"period_min":1436.1064998629,"perigee_km":35782.368120456,"apogee_km":35791.19745466,"semimajor_km":42164.919787558,"source":"CELESTRAK","updated_at":"2026-05-25T13:38:14.051934Z"}}}